Dewpoint
67 71 76 76 75 76 75 75 75 75 74 74 73 73 73 74 74 75 74 75 74 75 74 73 74 73 72 73 72 72 71 73 73 72 72 73 73 72 72 72 72 69 73
67 71 76 75 75 74 74 75 76 75 75 74 73 74 74 74 74 74 74 75 74 75 73 73 73 73 73 72 73 73 73 72 74 73 72 73 73 73 73 72 73 71 73
66 70 71 75 75 75 75 75 75 75 75 75 75 75 74 74 75 74 74 74 75 74 74 74 73 72 73 72 73 73 73 73 73 73 73 67 70 73 74 72 73 74 73
66 67 68 75 75 75 75 75 75 75 75 75 75 74 73 74 74 74 74 74 73 74 74 74 73 73 73 72 73 73 73 73 73 72 72 65 69 74 74 74 74 74 74
62 65 71 76 75 74 74 73 73 73 73 74 74 73 73 73 74 74 74 74 73 73 74 73 73 73 73 73 73 73 72 72 70 70 71 70 70 71 73 73 73 74 74
62 65 74 75 74 74 73 73 73 73 73 74 75 74 73 73 73 74 74 73 73 73 74 74 73 73 74 74 73 73 72 72 73 72 69 71 71 74 73 74 72 73 73
64 67 71 76 74 73 73 73 73 72 72 72 73 74 73 73 73 74 74 73 74 73 73 74 74 74 74 74 73 73 72 73 72 70 70 71 73 75 74 73 74 74 74
63 64 70 74 74 74 73 73 73 73 72 71 71 73 73 73 73 73 74 73 73 73 73 73 74 74 74 74 73 71 72 73 71 66 70 69 75 76 72 73 74 74 73
60 65 68 69 72 74 74 74 74 73 73 72 70 70 71 72 73 73 72 73 73 73 73 73 73 73 73 73 72 71 73 73 71 70 67 71 75 75 74 73 74 73 74
63 64 65 67 68 71 74 74 74 74 74 73 72 70 69 69 72 72 73 73 72 73 73 72 73 73 73 73 73 72 72 73 70 69 67 69 75 74 72 72 73 74 75
60 63 62 62 70 73 71 75 74 74 73 73 72 73 72 72 72 71 74 73 73 72 72 73 73 73 73 74 74 74 73 69 70 70 71 75 76 76 75 73 73 74 74
58 61 62 64 66 71 71 74 75 73 74 75 72 74 72 73 74 71 71 73 73 73 73 73 73 73 73 68 71 74 72 69 69 69 70 75 76 75 75 76 75 74 75
57 59 62 66 70 68 71 70 72 73 73 73 74 74 74 72 72 72 74 73 72 73 71 72 72 71 70 69 71 72 69 68 65 68 69 75 75 75 74 76 76 75 74
56 59 59 64 68 68 70 67 72 71 72 72 73 73 74 74 72 73 72 72 74 72 72 73 74 74 72 72 72 70 69 70 67 68 72 74 76 76 75 75 76 77 76
56 59 60 65 73 73 75 73 70 71 71 71 71 73 73 73 74 75 74 73 74 72 73 73 72 73 72 72 70 70 72 69 66 66 69 75 74 75 76 76 76 76 76
61 62 62 68 72 70 74 75 73 71 71 74 74 73 73 72 74 72 74 72 73 73 75 75 75 75 75 72 74 71 72 69 70 71 70 71 75 75 76 76 76 77 76
65 68 66 67 69 72 73 73 72 73 71 73 73 74 72 71 72 73 73 72 74 76 75 74 75 75 74 73 73 72 71 71 70 70 68 71 73 76 76 76 76 77 77
68 67 70 62 65 69 70 72 70 72 69 73 74 72 71 72 72 73 73 72 73 74 74 75 74 74 74 74 72 72 71 71 71 70 70 70 70 69 75 76 76 76 77
68 68 69 69 66 69 74 71 71 71 72 73 73 72 72 73 74 75 75 73 75 73 73 74 73 74 73 73 73 73 71 72 71 68 68 68 70 70 71 74 75 76 77
70 69 71 67 72 73 73 76 75 70 75 74 73 74 74 75 74 75 75 75 77 74 75 74 75 75 74 74 71 67 69 72 71 71 70 68 69 70 70 72 74 74 77
68 68 70 71 75 73 73 71 72 72 71 72 73 73 74 74 73 74 76 73 73 74 74 75 74 74 72 73 73 73 71 71 70 71 70 71 69 69 69 73 74 73 73
67 70 71 72 74 74 73 75 74 74 72 71 72 73 73 75 76 75 77 75 73 73 76 76 75 74 73 73 71 71 68 71 71 71 72 70 69 70 70 70 73 73 73
69 71 72 74 75 75 76 76 75 75 75 72 73 72 73 75 75 77 77 77 76 76 74 75 75 74 71 71 72 70 66 66 67 71 70 71 70 71 69 67 72 70 73
65 69 73 74 76 75 77 76 73 73 71 73 76 73 74 73 74 74 76 77 77 77 76 75 73 74 75 71 71 69 71 72 67 64 70 69 72 69 68 69 70 71 73
63 68 72 75 77 77 77 78 75 75 73 71 75 77 78 74 75 74 76 75 76 77 76 75 75 74 75 73 71 72 73 72 73 69 65 66 68 67 67 68 69 69 71
63 68 71 75 77 77 75 77 77 76 75 73 75 75 74 74 74 77 75 76 78 76 76 77 76 75 75 75 75 75 72 70 69 71 70 66 66 70 70 70 71 73 72
Lifted_Index
-3 -3 -4 -4 -4 -4 -4 -5 -5 -5 -5 -5 -4 -4 -5 -5 -5 -5 -5 -5 -5 -4 -4 -4 -4 -3 -3 -3 -3 -2 -2 -2 -2 -2 -2 -3 -3 -3 -3 -3 -3 -3 -4
-2 -3 -3 -3 -3 -3 -4 -4 -5 -5 -5 -5 -5 -5 -5 -5 -5 -5 -5 -5 -5 -5 -4 -4 -4 -3 -3 -3 -3 -3 -3 -2 -3 -3 -3 -3 -3 -3 -3 -3 -3 -4 -4
-2 -2 -3 -3 -3 -3 -4 -4 -4 -5 -5 -5 -5 -5 -5 -5 -5 -5 -5 -5 -5 -5 -5 -4 -4 -3 -3 -3 -3 -3 -3 -3 -3 -3 -3 -3 -3 -4 -4 -4 -4 -4 -4
-1 -2 -2 -3 -3 -3 -4 -4 -4 -4 -4 -5 -5 -5 -5 -5 -5 -5 -5 -5 -5 -5 -5 -4 -4 -3 -3 -3 -4 -4 -3 -3 -3 -3 -3 -2 -3 -4 -5 -5 -5 -5 -5
-1 -1 -2 -3 -3 -3 -3 -3 -3 -3 -4 -4 -5 -5 -4 -5 -5 -5 -5 -5 -5 -5 -5 -5 -4 -4 -4 -4 -5 -5 -4 -3 -3 -3 -3 -3 -4 -4 -5 -5 -5 -5 -5
-0 -1 -2 -3 -3 -3 -3 -3 -3 -3 -3 -4 -4 -4 -4 -4 -5 -5 -5 -5 -5 -5 -5 -5 -5 -5 -5 -5 -5 -5 -5 -4 -3 -3 -3 -4 -4 -5 -5 -5 -4 -5 -5
-0 -1 -2 -3 -3 -3 -3 -3 -3 -3 -2 -3 -3 -4 -4 -4 -4 -5 -5 -5 -5 -5 -5 -5 -5 -5 -5 -5 -5 -5 -5 -5 -4 -3 -3 -4 -5 -5 -5 -4 -5 -5 -5
-0 -1 -2 -3 -3 -3 -4 -4 -3 -3 -3 -2 -2 -3 -4 -4 -4 -4 -5 -5 -5 -5 -5 -5 -5 -5 -5 -5 -5 -5 -5 -5 -4 -4 -3 -4 -5 -5 -5 -5 -5 -6 -6
-0 -1 -1 -2 -3 -4 -4 -4 -4 -4 -3 -2 -2 -2 -3 -3 -4 -4 -4 -4 -5 -5 -5 -4 -4 -4 -5 -5 -5 -4 -4 -4 -4 -3 -3 -4 -5 -5 -5 -5 -5 -6 -6
-0 -0 -1 -2 -3 -3 -3 -4 -4 -4 -4 -3 -2 -2 -2 -2 -3 -3 -4 -4 -4 -4 -4 -4 -4 -4 -4 -5 -5 -4 -4 -3 -3 -2 -3 -4 -5 -5 -5 -5 -5 -6 -6
-0 -0 -1 -1 -2 -3 -3 -3 -4 -4 -3 -3 -2 -2 -2 -2 -3 -3 -3 -3 -4 -4 -4 -4 -4 -4 -4 -4 -4 -4 -4 -3 -2 -1 -2 -4 -5 -5 -5 -5 -5 -5 -6
-0 -0 -1 -1 -2 -3 -3 -3 -4 -3 -3 -3 -2 -2 -2 -2 -3 -3 -3 -3 -3 -3 -3 -3 -3 -3 -3 -3 -3 -3 -3 -2 -2 -1 -2 -4 -5 -5 -5 -6 -6 -5 -6
-0 -1 -1 -2 -2 -3 -3 -3 -3 -3 -3 -3 -2 -2 -2 -2 -2 -2 -2 -3 -3 -3 -3 -3 -3 -3 -2 -2 -2 -2 -2 -2 -1 -1 -2 -3 -4 -4 -5 -5 -6 -6 -6
-0 -1 -1 -2 -2 -2 -3 -3 -3 -3 -3 -3 -2 -2 -2 -2 -2 -2 -2 -3 -3 -3 -3 -3 -3 -3 -3 -2 -2 -2 -2 -2 -1 -2 -2 -3 -4 -4 -5 -5 -5 -6 -6
-1 -1 -2 -2 -3 -3 -3 -3 -3 -3 -3 -2 -2 -2 -2 -2 -2 -3 -3 -3 -3 -2 -2 -3 -3 -3 -3 -3 -3 -3 -3 -3 -2 -2 -3 -3 -4 -4 -5 -5 -5 -6 -6
-2 -2 -2 -3 -4 -4 -4 -3 -3 -3 -3 -3 -3 -2 -2 -2 -2 -3 -3 -3 -3 -3 -3 -3 -3 -3 -3 -4 -4 -4 -3 -3 -3 -3 -3 -3 -4 -4 -5 -5 -6 -6 -6
-3 -3 -3 -3 -4 -4 -4 -4 -4 -3 -3 -3 -3 -2 -2 -1 -2 -2 -3 -3 -4 -4 -4 -4 -4 -4 -4 -4 -4 -4 -4 -4 -3 -3 -3 -4 -4 -5 -5 -5 -6 -6 -6
-2 -3 -3 -3 -3 -4 -4 -4 -4 -3 -3 -3 -3 -2 -2 -2 -2 -3 -3 -4 -4 -4 -4 -4 -4 -4 -4 -4 -4 -4 -4 -4 -4 -4 -4 -4 -4 -5 -5 -5 -6 -6 -6
-2 -3 -3 -3 -3 -4 -5 -5 -4 -4 -4 -4 -4 -3 -3 -3 -3 -4 -5 -5 -5 -5 -5 -4 -4 -4 -4 -4 -4 -4 -4 -4 -4 -4 -4 -4 -4 -5 -5 -5 -6 -6 -6
-4 -4 -4 -4 -4 -5 -5 -5 -5 -5 -5 -5 -5 -4 -4 -4 -4 -5 -5 -5 -5 -5 -5 -5 -5 -5 -5 -5 -5 -4 -4 -4 -4 -4 -4 -4 -4 -5 -5 -5 -6 -6 -6
-6 -5 -5 -4 -5 -6 -6 -6 -5 -5 -5 -4 -4 -5 -5 -5 -5 -5 -5 -5 -5 -5 -5 -5 -5 -5 -5 -5 -5 -5 -4 -4 -3 -4 -4 -4 -4 -4 -4 -5 -6 -6 -6
-7 -6 -5 -5 -5 -6 -6 -6 -6 -5 -5 -4 -4 -5 -5 -5 -5 -5 -5 -5 -4 -5 -5 -5 -5 -5 -5 -5 -5 -5 -4 -3 -3 -4 -4 -4 -4 -4 -4 -5 -5 -5 -5
-7 -6 -6 -6 -6 -7 -7 -7 -6 -6 -5 -4 -4 -5 -5 -5 -5 -5 -6 -5 -5 -5 -5 -5 -5 -5 -5 -5 -5 -4 -4 -3 -3 -4 -4 -5 -4 -4 -4 -4 -4 -4 -5
-6 -6 -6 -7 -7 -8 -8 -7 -7 -6 -5 -5 -5 -5 -5 -5 -5 -6 -6 -6 -6 -5 -5 -5 -5 -5 -5 -5 -5 -5 -4 -4 -4 -4 -4 -4 -3 -3 -2 -2 -2 -4 -5
-6 -6 -7 -8 -8 -8 -8 -8 -7 -7 -6 -6 -6 -6 -5 -5 -5 -6 -6 -6 -6 -6 -6 -6 -5 -5 -5 -5 -5 -5 -5 -5 -4 -4 -4 -4 -3 -3 -2 -1 -1 -3 -4
-6 -7 -8 -8 -9 -9 -9 -8 -8 -7 -6 -6 -6 -6 -6 -5 -6 -6 -6 -6 -6 -6 -6 -6 -6 -6 -6 -6 -5 -5 -5 -5 -4 -4 -4 -4 -3 -3 -2 -1 -1 -3 -4